Probability
18 17 16 20 35 55 66 63 51 34 19 10 8 7 5 3 2 4 6 16 40 62 74 84 90 90 85 80 73 60 41 27 18 9 2 0 0 0 0 0 0 0 0
41 38 36 42 56 71 78 72 61 47 33 23 19 17 13 9 6 6 10 19 39 63 77 85 90 91 90 86 79 68 53 38 27 15 5 1 0 0 0 0 0 0 0
75 71 69 73 82 88 89 83 73 63 51 40 33 27 21 14 9 9 13 22 38 60 76 85 91 94 94 92 86 78 68 56 43 29 16 6 2 0 0 0 0 0 0
93 91 90 92 94 94 92 88 82 71 58 48 39 29 20 13 9 8 12 21 35 54 69 78 86 92 95 94 88 79 72 66 56 47 33 18 7 2 0 0 0 0 0
93 93 95 96 95 92 90 87 82 71 58 48 38 25 14 9 7 7 9 13 24 40 54 65 73 79 84 86 82 74 66 61 59 58 49 33 16 5 1 0 0 0 0
84 88 93 94 91 87 84 79 73 65 55 47 36 22 11 8 7 7 6 6 10 20 32 45 55 60 62 64 63 61 55 49 49 55 56 47 29 12 3 0 0 0 0
77 82 88 89 87 82 77 72 66 59 52 47 37 20 9 6 7 6 5 3 3 5 11 22 32 38 38 36 34 36 39 34 33 41 52 52 40 22 7 1 0 0 0
76 80 82 82 80 75 72 69 64 59 53 47 36 20 8 5 4 4 3 3 2 1 2 6 12 16 17 15 12 14 19 18 17 24 36 44 40 26 10 2 0 0 0
75 78 78 75 71 68 66 65 62 59 53 42 28 18 9 5 3 1 1 1 1 0 0 0 1 3 3 4 3 4 6 5 5 9 17 27 30 22 10 2 0 0 0
66 69 71 68 65 63 61 58 55 54 47 33 19 13 9 5 2 1 0 0 1 0 0 0 0 0 0 0 0 0 0 0 0 1 4 10 14 12 5 2 0 0 0
48 53 58 62 62 61 58 53 48 44 38 26 16 11 7 4 3 1 0 0 0 0 0 0 0 0 0 0 0 0 0 0 0 0 0 2 3 3 2 1 0 0 0
25 33 44 53 58 59 55 47 38 33 28 21 13 9 6 4 4 2 1 0 0 0 0 0 0 0 0 0 0 0 0 0 0 0 0 0 0 0 0 0 0 0 0
9 15 26 38 46 48 45 37 28 22 20 15 10 6 5 4 3 2 1 0 0 0 0 0 0 0 0 0 0 0 0 0 0 0 0 0 0 0 0 0 0 0 0
2 5 11 20 28 32 32 27 21 16 13 10 7 4 3 3 2 1 0 0 0 0 0 0 0 0 0 0 0 0 0 0 0 0 0 0 0 0 0 0 0 0 0
0 1 3 7 13 17 19 18 15 11 9 7 4 2 1 1 1 0 0 0 0 0 0 0 0 0 0 0 0 0 0 0 0 0 0 0 0 0 0 0 0 0 0
0 0 0 2 4 6 7 8 6 4 5 4 2 0 0 0 0 0 0 0 0 0 0 0 0 0 0 0 0 0 0 0 0 0 0 0 0 0 0 0 0 0 0
0 0 0 0 1 1 1 1 1 0 1 1 0 0 0 0 0 0 0 0 0 0 0 0 0 0 0 0 0 0 0 0 0 0 0 0 0 0 0 0 0 0 0
0 0 0 0 0 0 0 0 0 0 0 0 0 0 0 0 0 0 0 0 0 0 0 0 0 0 0 0 0 0 0 0 0 0 0 0 0 0 0 0 0 0 0
0 0 0 0 0 0 0 0 0 0 0 0 0 0 0 0 0 0 0 0 0 0 0 0 0 0 0 0 0 0 0 0 0 0 0 0 0 0 0 0 0 0 0
0 0 0 0 0 0 0 0 0 0 0 0 0 0 0 0 0 0 0 0 0 0 0 0 0 0 0 0 0 0 0 0 0 0 0 0 0 0 0 0 0 0 0
0 0 0 0 0 0 0 0 0 0 0 0 0 0 0 0 0 0 0 0 0 0 0 0 0 0 0 0 0 0 0 0 0 0 0 0 0 0 0 0 0 0 0
0 0 0 0 0 0 0 0 0 0 0 0 0 0 0 0 0 0 0 0 0 0 0 0 0 0 0 0 0 0 0 0 0 0 0 0 0 0 0 0 0 0 0
0 0 0 0 0 0 0 0 0 0 0 0 0 0 0 0 0 0 0 0 0 0 0 0 0 0 0 0 0 0 0 0 0 0 0 0 0 0 0 0 0 0 0
0 0 0 0 0 0 0 0 0 0 0 0 0 0 0 0 0 0 0 0 0 0 0 0 0 0 0 0 0 0 0 0 0 0 0 0 0 0 0 0 0 0 0
0 0 0 0 0 0 0 0 0 0 0 0 0 0 0 0 0 0 0 0 0 0 0 0 0 0 0 0 0 0 0 0 0 0 0 0 0 0 0 0 0 0 0
0 0 0 0 0 0 0 0 0 0 0 0 0 0 0 0 0 0 0 0 0 0 0 0 0 0 0 0 0 0 0 0 0 0 0 0 0 0 0 0 0 0 0
Wind_Speed
8 8 6 6 7 6 7 7 7 8 8 9 9 10 10 9 9 8 6 15 17 17 18 18 19 20 19 19 19 18 18 18 16 16 17 18 18 18 19 19 18 18 17
9 8 7 6 6 7 7 7 8 8 7 7 9 9 9 8 8 8 7 9 15 17 18 19 20 21 21 20 20 19 19 18 17 16 16 17 17 17 18 18 18 17 17
11 9 8 7 7 7 7 6 7 5 5 6 7 7 6 6 6 7 7 6 7 14 18 20 21 21 21 21 21 20 19 18 17 17 17 17 17 17 17 17 17 17 17
12 9 8 7 7 5 5 5 4 4 4 4 4 4 4 4 6 6 6 6 6 7 12 19 21 22 22 22 22 21 20 19 18 18 18 17 17 17 17 17 17 16 16
12 9 8 6 5 4 4 4 3 3 3 4 4 4 5 5 6 7 7 8 7 8 7 11 19 22 23 24 22 22 20 19 19 19 19 18 18 17 17 16 16 16 16
8 7 6 5 4 3 3 3 3 2 3 3 4 5 5 5 5 6 8 8 8 9 9 9 8 12 20 22 21 21 21 19 19 19 19 19 19 18 17 17 16 16 17
5 4 4 4 5 5 5 4 3 4 4 3 2 4 5 6 8 7 6 6 7 8 6 6 6 6 6 14 17 19 20 20 19 19 19 19 19 18 18 18 17 17 17
5 5 5 5 5 5 5 6 5 4 4 4 4 2 4 4 4 5 4 3 3 3 3 3 2 3 3 3 6 13 17 19 20 19 18 19 19 19 19 18 17 17 17
6 6 7 6 6 6 6 7 7 7 5 4 4 4 3 5 4 3 2 1 2 2 2 2 1 1 1 1 2 6 12 14 18 19 19 19 19 19 19 19 18 18 18
6 6 6 6 7 6 6 7 7 6 6 5 4 5 5 4 3 3 3 2 3 2 2 2 1 1 1 1 0 2 6 8 10 13 16 18 19 19 19 19 20 20 19
6 6 6 5 5 5 6 7 6 7 6 6 4 3 3 3 3 3 4 3 3 3 2 1 1 2 3 2 2 2 2 2 2 4 6 10 15 18 19 20 21 21 20
4 5 5 5 5 5 6 6 6 6 6 5 4 4 3 3 3 3 3 2 3 3 2 2 2 2 2 2 2 2 3 3 3 1 1 2 4 9 13 16 18 19 20
5 6 5 5 5 5 6 6 6 6 6 5 5 4 4 4 3 3 2 2 2 2 2 2 2 1 1 1 1 2 3 3 3 2 2 1 1 1 3 6 9 11 14
6 6 6 5 6 6 6 6 5 6 5 5 5 5 4 4 4 3 3 2 1 1 2 2 2 2 2 1 1 3 2 2 3 3 3 3 3 2 2 1 1 3 5
6 6 6 6 5 5 5 5 5 6 5 5 5 5 3 3 3 3 2 3 3 2 1 2 2 3 2 1 2 2 2 1 2 3 3 3 3 2 2 1 1 2 4
6 6 5 4 4 4 4 4 4 4 5 4 3 4 3 2 2 2 2 2 2 3 2 1 2 2 3 3 5 3 3 3 2 3 3 2 2 1 1 0 1 2 4
6 6 5 4 3 2 2 2 2 3 4 3 3 4 4 3 3 2 2 2 2 3 4 2 3 3 5 5 5 4 4 3 2 3 3 3 2 2 1 2 2 3 5
5 5 5 4 4 3 2 2 2 3 4 5 5 5 5 5 5 3 3 4 3 3 4 4 3 4 5 4 4 5 4 4 4 5 4 3 3 3 3 3 4 4 6
5 5 5 5 5 5 5 6 7 7 8 7 6 6 6 6 6 4 5 5 5 6 5 5 3 3 3 3 4 4 4 4 4 5 5 5 4 4 4 4 4 5 7
4 4 5 5 5 6 7 8 8 9 9 8 7 6 6 6 6 6 6 7 7 8 6 5 4 4 3 3 3 4 4 4 4 4 5 5 5 5 5 5 6 7 8
2 3 4 4 5 4 5 6 7 9 8 8 7 7 7 9 9 8 7 7 8 7 6 5 4 4 4 4 4 3 3 3 3 3 3 3 3 3 3 5 6 9 9
1 2 3 3 4 4 6 7 7 7 7 8 7 7 7 9 11 13 13 11 9 8 6 5 3 4 3 3 3 3 3 4 4 4 3 3 3 3 3 3 6 9 9
1 1 2 3 4 4 7 9 10 8 7 6 6 6 6 7 7 7 10 12 11 10 7 5 4 2 2 2 3 4 4 3 2 4 3 3 3 3 3 3 7 8 9
3 2 3 4 4 5 8 11 12 9 8 7 6 7 7 6 5 7 7 7 6 6 5 4 3 1 1 0 1 1 1 2 3 3 3 3 4 3 3 3 6 8 9
4 3 4 5 5 4 9 11 10 7 7 6 5 6 7 7 9 10 8 7 6 5 6 8 6 5 5 6 4 4 4 4 3 4 3 2 3 4 4 3 5 8 9
5 5 5 5 6 4 7 11 11 6 6 5 5 5 8 8 10 10 7 6 6 4 4 6 7 8 7 7 8 4 2 2 2 3 4 3 3 4 4 4 3 4 5
Wind_Direction
225 227 229 228 226 219 217 220 226 231 235 240 242 242 244 243 240 234 240 243 240 235 230 225 222 223 225 226 226 227 227 229 228 226 225 225 225 224 222 220 217 214 213
225 227 230 226 223 217 216 218 222 226 232 235 240 242 242 241 241 240 239 246 241 232 228 228 227 226 227 227 227 227 227 228 227 225 225 225 225 224 222 220 218 215 213
223 224 227 225 220 211 209 213 220 219 224 226 233 240 245 247 250 249 247 243 242 236 231 229 231 231 230 229 229 228 227 227 226 224 223 223 223 222 220 219 218 215 212
223 222 224 225 216 203 198 204 207 211 221 223 233 246 251 256 260 262 260 253 245 245 237 234 234 235 236 235 234 233 229 227 225 223 221 220 220 219 218 217 216 214 211
228 224 227 226 213 205 201 214 211 205 225 236 244 250 250 253 260 269 268 263 252 244 238 236 234 236 239 240 238 237 234 231 227 224 221 219 218 217 216 216 215 213 211
242 230 230 222 216 213 217 229 234 228 224 234 258 263 258 257 256 257 263 268 263 255 243 237 235 239 240 241 238 236 236 235 232 227 223 219 217 214 213 214 214 213 212
259 244 234 217 211 212 219 226 232 242 242 221 240 278 275 257 252 254 255 265 274 273 258 240 231 233 241 241 240 237 236 239 237 231 225 219 215 212 211 212 212 212 212
260 251 231 220 221 221 221 218 216 226 233 206 199 235 292 305 274 252 251 264 305 322 315 290 257 237 239 236 238 238 238 241 241 237 228 219 214 210 209 210 210 211 212
269 251 234 221 221 216 219 217 212 217 230 226 201 194 220 247 291 294 265 270 340 352 343 325 324 296 255 229 249 250 248 245 245 242 234 222 213 209 208 209 210 211 212
275 265 249 232 224 219 222 224 218 215 218 228 219 213 212 204 229 289 298 303 324 320 315 306 320 3 54 81 76 266 259 255 253 253 245 229 215 208 208 210 213 213 213
288 279 264 244 231 224 223 221 216 214 211 214 209 203 217 223 213 226 278 304 321 308 306 335 35 54 70 84 86 53 25 317 278 272 268 245 224 212 211 213 217 218 218
295 287 274 255 240 229 224 222 218 213 210 206 201 194 190 192 197 203 236 278 301 300 330 33 65 82 84 78 63 57 49 42 35 18 308 265 236 223 217 217 222 225 225
296 288 278 261 248 233 226 219 212 209 202 198 198 198 196 200 189 191 202 241 278 298 348 18 36 59 61 60 9 21 35 45 47 44 48 61 133 199 224 223 226 231 233
294 290 281 267 255 240 229 217 211 210 202 202 202 196 197 204 192 188 183 179 219 321 7 0 360 24 16 7 352 18 7 41 61 63 66 70 87 108 117 137 202 242 247
305 301 290 276 259 242 229 214 215 214 200 202 201 197 190 196 181 177 178 175 167 157 34 348 358 354 359 12 358 358 347 356 52 63 71 79 84 91 105 130 215 264 271
320 319 315 302 283 258 234 214 210 203 191 190 186 172 162 153 143 150 163 167 162 150 137 14 1 351 0 12 13 9 3 21 45 60 64 66 68 68 68 294 283 282 279
333 336 333 335 329 304 249 197 201 180 169 164 164 148 133 121 114 114 121 116 114 124 117 60 20 11 24 16 3 10 24 33 34 55 63 60 54 38 10 345 328 310 297
339 341 343 352 2 12 31 89 115 118 123 122 117 111 108 106 91 86 91 89 87 95 111 95 34 21 23 12 13 21 21 38 38 44 50 42 31 12 353 334 323 315 307
346 355 10 19 23 32 55 69 79 81 83 84 88 94 96 97 87 79 79 78 77 80 83 92 56 18 9 6 8 13 23 26 33 40 41 32 20 8 350 331 318 314 310
354 6 16 26 38 50 67 75 79 79 81 79 77 79 80 86 89 85 80 81 87 83 78 77 57 24 7 343 15 9 10 12 17 20 24 20 18 15 4 350 339 328 316
357 7 26 30 40 59 73 86 93 95 91 85 78 75 74 77 77 82 90 90 90 88 80 75 61 41 20 12 358 342 8 352 0 6 354 358 359 358 355 351 347 336 326
332 25 34 44 48 64 86 94 99 98 99 96 89 77 71 64 73 76 82 86 93 99 96 86 71 61 27 7 354 13 19 26 0 341 359 339 349 342 329 334 337 335 333
204 104 73 81 71 72 98 107 107 105 101 99 95 84 79 68 72 78 72 68 68 77 98 114 97 81 53 6 24 26 28 44 6 321 1 338 329 319 307 312 326 333 334
184 159 134 116 96 89 106 110 104 95 91 87 89 94 90 70 76 92 81 67 55 48 55 74 105 107 102 70 74 55 340 16 336 337 28 356 319 309 304 306 318 326 330
183 172 154 143 124 103 107 113 108 99 93 81 78 83 92 84 86 90 84 72 50 23 39 58 73 73 56 53 59 49 33 42 3 321 349 9 317 313 311 309 318 327 324
182 167 158 156 143 129 118 121 119 114 106 96 77 69 82 96 91 89 89 83 66 30 38 50 49 41 38 37 47 66 87 72 34 333 322 355 331 342 330 310 316 331 332